COSMOS 1275 DEB, 12673

Orbit data source: Space-Track

COSMOS 1275 DEB, 12673 is space debris in LEO originally from a launch on Thu, 04 Jun 1981 UTC launched from the Plesetsk Missile And Space Complex (PKMTR). Debris objects in space refer to the collection of defunct objects orbiting the Earth. Examples of debris include non-operational satellites, rocket bodies, and fragments generated from explosions, collisions, or faulty payload assembly.

Loading next visibility...
Identifier
12673, 1981-053AD
Orbit
LEO
Country
Flag of CISCIS
Related business
Manufacturer
Unknown
Mission
Spacecraft
Bus & Motor
Unknown
Mass
Unknown
Launch date (UTC)
1981-06-04 (45 years ago)
Launch vehicle
Unknown
Launch site
Plesetsk Missile And Space Complex (PKMTR)
Object type
Payload
Rocket body
Debris
Shape & HBR
Unknown shape, 0.3 m
Radar Cross Section
Medium (>0.1 m² and <1 m²)

Expand to show TLE details & history
Last TLE update: 14 hours ago

TLE from 14 hours ago
0 COSMOS 1275 DEB
1 12673U 81053AD  26145.33300174  .00001775  00000-0  95276-3 0  9997
2 12673  82.8492 160.0637 0033836 277.9500  93.9990 14.12231943271672
Epoch: 2026-05-25T07:59Z
TLE epoch observation values (Epoch: 2026-05-25T07:59:31.350Z)
Latitude
12.19636°
Longitude
158.80642°
Altitude
855.724 km
Speed
7.425 km/s
True Right ascension
10h 46m 26s
True Declination
12° 07' 35"
Sunlit
Object was in daylight at epoch
Visualization orbit readout
Latitude
Unknown
Longitude
Unknown
Altitude
Unknown
Speed
Unknown
Apparent Right ascension
Unknown
Apparent Declination
Unknown
Sunlit
N/A
Visualization observer readout
Local Sidereal Time
07:19:32
Azimuth
Unknown
Elevation
Unknown
Doppler factor
Unknown
Orbital elements
Apogee altitude
873.298 km
Perigee altitude
824.392 km
Semi-major axis
7,226.982 km
Eccentricity
0.00338
Inclination
82.8492°
RAAN
160.0637°
Arg. of periapsis
277.95°
True anomaly
94.38567°
Mean anomaly
93.999°
Eccentric anomaly
94.19235°
Mean motion
3.53271 °/min
Orbital period
101.9 mins
BSTAR
0.00095276
Loading maneuver chart data...
Computing Atmospheric mass density...
Loading historical data...
Loading historical data...
Loading historical data...
Loading historical data...
Loading historical data...
Loading historical data...
Loading historical data...

Documentation

Showing up to 5 results
|